Regional Weather Roundup
Issued by NWS

Home | Current Version | Previous Version | Text Only | Print | Product List | Glossary On
Versions: 1 2 3 4 5 6 7 8 9 10 11 12 13 14 15 16 17 18 19 20 21 22 23 24 25 26 27 28 29 30 31 32 33 34 35 36 37 38 39 40 41 42 43 44 45 46 47 48 49 50
000
ASUS45 KTFX 010410
RWRMT
MONTANA REGIONAL WEATHER ROUNDUP
NATIONAL WEATHER SERVICE GREAT FALLS MT
1000 PM MDT TUE MAY 31 2016

NOTE: "FAIR" INDICATES FEW OR NO CLOUDS BELOW 12000 FEET WITH NO
SIGNIFICANT WEATHER AND/OR OBSTRUCTIONS TO VISIBILITY.

MTZ001>007-043-010500-
WEST OF THE DIVIDE

CITY           SKY/WX    TMP DP  RH WIND       PRES   REMARKS
KALISPELL      PTCLDY    56  42  59 CALM      30.06S
MISSOULA       CLEAR     60  35  39 NW5       30.08R
BUTTE          CLOUDY    52  32  46 SE8       30.17R
MULLAN PASS    CLEAR     50  30  46 NW5       30.16S
ANACONDA         N/A     48  36  61 SW7       30.14S
DEER LODGE       N/A     48  36  61 W6        30.15R
EUREKA           N/A     59  39  47 E6        30.05S
HAMILTON         N/A     55  39  54 SE5       30.08R
LIBBY            N/A     57  39  51 SE7       30.05S
$$

MTZ008-052>055-010500-
SOUTHWEST MONTANA

CITY           SKY/WX    TMP DP  RH WIND       PRES   REMARKS
BOZEMAN        CLEAR     45  36  70 E9        30.15S
DILLON         CLEAR     50  34  54 NE9       30.14R
W YELLOWSTONE  CLEAR     41  32  70 NE3       30.20R
ENNIS          CLEAR     43  36  75 N5        30.21S
$$

MTZ009-010-012-014-046-048-049-054-010500-
EAST SLOPES AND CENTRAL MONTANA

CITY           SKY/WX    TMP DP  RH WIND       PRES   REMARKS
CUT BANK         N/A     51  35  54 E5        30.12S
GREAT FALLS    CLEAR     50  36  58 E6        30.14S
MALMSTROM AFB  CLEAR     49  39  67 E6        30.14R
HELENA         CLEAR     58  35  42 SW5       30.13R
CHOTEAU          N/A     55  36  47 SE5       30.16R
$$

MTZ011-013-016-021-045-047-050-051-010500-
NORTH CENTRAL MONTANA

CITY           SKY/WX    TMP DP  RH WIND       PRES   REMARKS
HAVRE          CLEAR     49  43  80 W5        30.11R
LEWISTOWN      CLEAR     50  39  66 CALM      30.17R
N BAR RANCH      N/A     46  37  71 NW17G23   30.16S
CHINOOK          N/A     52  46  82 N3        30.11R
$$

MTZ017>020-022>027-061-062-010500-
NORTHEAST MONTANA

CITY           SKY/WX    TMP DP  RH WIND       PRES   REMARKS
GLASGOW        CLOUDY    54  46  74 NW9       30.05R
JORDAN           N/A     53  48  83 NW13      30.08S
SIDNEY         CLOUDY    54  50  87 NW14      29.98R
WOLF POINT     CLOUDY    56  50  80 W6        30.03R
PLENTYWOOD       N/A     52  48  87 NW10      29.99R
POPLAR           N/A     52  46  82 CALM      30.02R
$$

MTZ028>42-056>058-010500-
SOUTHCENTRAL AND SOUTHEAST MONTANA

CITY           SKY/WX    TMP DP  RH WIND       PRES   REMARKS
BAKER          CLOUDY    50  47  89 NW17G25   30.04R
BILLINGS       PTCLDY    53  40  61 E6        30.15R
LIVINGSTON     CLEAR     49  35  58 SE8       30.16R
MILES CITY     CLOUDY    54  46  74 NW13      30.08R
FORSYTH          N/A     54  46  76 SW3       30.11R
$$

REGIONAL REPORTS...DAKOTAS

CITY           SKY/WX    TMP DP  RH WIND       PRES   REMARKS
WILLISTON      CLOUDY    53  48  83 N9        29.96R
MINOT          LGT RAIN  52  49  89 NW23G36   29.80R FOG
DICKINSON      CLOUDY    49  46  90 NW15      29.92R
BEACH          MOCLDY    50  50 100 NW13      30.03R
CROSBY         CLOUDY    48  48 100 N16G26    29.97R
WATFORD CITY   CLOUDY    50  50 100 NW13      29.95R
BISMARCK       CLOUDY    52  49  89 NW18G29   29.81R
GRAND FORKS    LGT RAIN  54  52  93 N3        29.63F
FARGO          CLOUDY    60  51  72 SW17      29.64S
BUFFALO SD       N/A     50  46  86 W14       29.96R
RAPID CITY     CLEAR     47  39  74 NW9       30.07R
$$

REGIONAL REPORTS...WYOMING/IDAHO/WASHINGTON

CITY           SKY/WX    TMP DP  RH WIND       PRES   REMARKS
GILLETTE       PTCLDY    43  39  86 NW7       30.15R
SHERIDAN       CLEAR     47  40  76 NW8       30.15R
BUFFALO WY     CLEAR     48  38  68 NW8       30.18R
CODY           CLEAR     50  34  53 NW5       30.18R
YELLOWSTONE LA   N/A     40  29  64 CALM      30.26S
IDAHO FALLS    CLEAR     54  38  54 CALM      30.10R
SALMON         CLEAR     57  36  44 SE5       30.04R
BOISE          CLEAR     70  27  20 S3        30.00S
SPOKANE        MOCLDY    72  34  24 CALM      30.03S
$$

REGIONAL REPORTS...ALBERTA

CITY           SKY/WX    TMP DP  RH WIND       PRES   REMARKS
EDMONTON       CLEAR     54  39  58 S5        30.02S
CALGARY        MOCLDY    57  36  44 SE13G18   30.05F
LETHBRIDGE     MOCLDY    50  41  71 SE8       30.08F
MEDICINE HAT   CLEAR     55  46  71 E3        30.09S
WATERTON GATE    N/A     46  41  81 SW2         N/A
MILK RIVER       N/A     45  36  70 E7          N/A
$$

REGIONAL REPORTS...SASKATCHEWAN

CITY           SKY/WX    TMP DP  RH WIND       PRES   REMARKS
SWIFT CURRENT  MOCLDY    52  48  87 W6        30.05S
REGINA         PTCLDY    48  46  93 N7        30.01R
SASKATOON      PTCLDY    52  43  71 NE3       30.05S
VAL MARIE        N/A     48  45  87 NW9         N/A
ROCKGLEN         N/A     48  46  93 N7          N/A
ASSINIBOIA       N/A     55  48  76 S5          N/A
$$



USA.gov is the U.S. government's official web portal to all federal, state and local government web resources and services.